{"data":{"norad_id":63167,"epoch":"2026-09-22T21:24:04.296960Z","epoch_age_seconds":104100,"freshness":"FRESH","line1":"1 63167U 25046J   26265.89171640  .00000111  00000+0  15290-3 0  9999","line2":"2 63167  88.9641 290.3681 0015541  28.4974 331.7024 13.51021411 85855","mean_motion":13.51021411,"eccentricity":0.0015541,"inclination_deg":88.9641,"raan_deg":290.3681,"arg_perigee_deg":28.4974,"mean_anomaly_deg":331.7024,"bstar":0.0001529,"rev_number":8585,"period_min":106.58602360226,"perigee_km":1056.9300848458,"apogee_km":1080.0757310076,"semimajor_km":7446.6399079267,"source":"CELESTRAK","updated_at":"2026-09-23T09:00:21.848656Z"}}